OpenBCM V1.13 (Linux)

Packet Radio Mailbox

DB0FHN

[JN59NK Nuernberg]

 Login: GUEST





  
I0OJJ  > KEPS     05.02.26 02:33l 317 Lines 15172 Bytes #999 (0) @ AMSAT
BID : ORB26036.1
Read: OE5RCO DJ6UX GUEST
Subj: 2Line Orbital Elements 26036.AMSAT
Path: DB0FHN<DB0RKB<DK0WUE<PD0LPM<PI8ZTM<CX2SA<EA2RCF<I0OJJ
Sent: 260205/0021z @:I0OJJ.ITA.EU [Rome] obcm1.13-38-g65b7
From: I0OJJ @ I0OJJ.ITA.EU (Gustavo)
To:   KEPS @ AMSAT
X-Info: This message was generated automatically


QST de W1STR

AMSAT Orbital Elements for Amateur Satellites in TLE Format
From Orbital Analysis Office
New England Sci-Tech STEM Education Center
Natick MA February 05, 2026
To all radio amateurs


These element sets describe the orbits of various satellites 
in use by the amateur radio community. For details see:
www.amsat.org/keplerian-elements-formats/

A daily update of element sets is available at:
www.amsat.org/tle/daily-bulletin.txt
or without bulletin text:
www.amsat.org/tle/dailytle.txt


AO-07
1 07530U 74089B   26035.85175064 -.00000051  00000-0 -31206-4 0  9999
2 07530 101.9971  47.6895 0012274  25.0005  97.6755 12.53695608343938
UO-11
1 14781U 84021B   26035.84430842  .00002549  00000-0  26755-3 0  9993
2 14781  97.7894   3.0643 0006029 260.5474  99.5062 14.90378659237418
AO-27
1 22825U 93061C   26035.70217369  .00000160  00000-0  77838-4 0  9993
2 22825  98.7053 103.0754 0009295 125.5720 234.6330 14.30901480688058
FO-29
1 24278U 96046B   26035.59883306 -.00000005  00000-0  27934-4 0  9991
2 24278  98.5424 262.4879 0350867  80.4690 283.5912 13.53266488455236
GO-32
1 25397U 98043D   26035.51450147  .00000099  00000-0  63046-4 0  9994
2 25397  98.9982  24.9853 0000649 186.3151 173.8019 14.24396210432446
ISS
1 25544U 98067A   26035.53404010  .00009649  00000-0  18669-3 0  9994
2 25544  51.6314 236.2588 0011166  64.0196 296.1942 15.48388993551199
NO-44
1 26931U 01043C   26035.79964533  .00000206  00000-0  10796-3 0  9995
2 26931  67.0488 226.6725 0007050 266.4607  93.5689 14.31892534271492
SO-50
1 27607U 02058C   26035.70306097  .00002263  00000-0  28517-3 0  9994
2 27607  64.5527 178.7782 0074309 286.6550  72.6407 14.82645923244817
CO-55
1 27844U 03031E   26035.54529303  .00000437  00000-0  20853-3 0  9994
2 27844  98.6773  45.7587 0009103 205.0069 155.0670 14.24237133172798
CO-57
1 27848U 03031J   26035.74894758  .00000368  00000-0  18097-3 0  9999
2 27848  98.6803  45.7788 0008700 223.6821 136.3669 14.23536735172534
RS-22
1 27939U 03042A   26035.86190949  .00001632  00000-0  26134-3 0  9992
2 27939  98.3393 216.5176 0010888 333.9312 163.2362 14.73155582196060
CO-58
1 28895U 05043F   26035.41327616  .00002399  00000-0  38864-3 0  9995
2 28895  98.2774 188.4247 0013158 266.3345  93.6356 14.72163801 82210
CO-65
1 32785U 08021C   26035.87060070  .00008248  00000-0  54118-3 0  9994
2 32785  97.8162  14.7803 0011022 113.6716 246.5670 15.07878361965246
CO-66
1 32791U 08021J   26035.52973718  .00022481  00000-0  83441-3 0  9991
2 32791  97.7487  27.6295 0005458  72.2363 287.9470 15.27582540967000
RS-30
1 32953U 08025A   26035.87261046  .00000091  00000-0  58207-3 0  9992
2 32953  82.4992  77.7497 0018481 238.0731 121.8552 12.43174957803250
SRMSAT
1 37841U 11058D   26035.59879629  .00000489  00000-0  12131-3 0  9991
2 37841  19.9709 141.9813 0011610 184.7748 205.7826 14.11534857739069
ZACUBE-1
1 39417U 13066B   26035.84575579  .00008931  00000-0  71201-3 0  9991
2 39417  97.8171 357.5157 0041054 333.4354  26.4764 14.99898899660882
Delfi-N3xt
1 39428U 13066N   26035.71464467  .00011795  00000-0  10752-2 0  9997
2 39428  97.8353 316.3424 0075714 287.7457  71.5509 14.93081409654843
GOMX-1
1 39430U 13066Q   26035.65348797  .00003262  00000-0  49661-3 0  9992
2 39430  97.6573 244.4167 0130401 142.6176 218.4192 14.68948963650457
LO-74
1 39440U 13066AA  26035.85199528  .00005504  00000-0  52227-3 0  9994
2 39440  97.8774 344.4961 0060625 105.5397 255.2526 14.92553342657243
AO-73
1 39444U 13066AE  26035.85259501  .00012699  00000-0  83378-3 0  9990
2 39444  97.8143   4.8634 0036210 295.2268  64.5207 15.07236015659711
DTUSAT-2
1 40030U 14033W   26035.86063699  .00010669  00000-0  60985-3 0  9994
2 40030  98.0813  25.4356 0007369 339.1663  20.9264 15.12870722632660
EO-80
1 40032U 14033Y   26035.47061714  .00009512  00000-0  54256-3 0  9998
2 40032  98.0694  24.3433 0005634 267.8230  92.2354 15.12989861632581
LILACSAT-2
1 40908U 15049K   26035.85760660  .00020039  00000-0  40108-3 0  9994
2 40908  97.4854  67.9656 0008172  26.3960 333.7705 15.46763774575266
Horyu-4
1 41340U 16012D   26035.06811737  .00077460  00000-0  10105-2 0  9994
2 41340  30.9926 302.1395 0002412  37.4204 322.6615 15.57331621549855
Lapan A3
1 41603U 16040E   26035.84907538  .00005177  00000-0  16921-3 0  9997
2 41603  97.1458  36.4642 0012123 124.2136 236.0257 15.32079661534549
CAS-2T
1 41847U 16066G   26035.80186133  .00002390  00000-0  34371-3 0  9994
2 41847  98.3948 113.0052 0343298 170.9586 189.8007 14.44345736485689
TechnoSat
1 42829U 17042E   26035.69734306  .00005064  00000-0  36984-3 0  9991
2 42829  97.4097 198.6127 0017930 180.5648 179.5561 15.03961387466787
AO-91
1 43017U 17073E   26035.60517309  .00009661  00000-0  44092-3 0  9994
2 43017  97.4900 265.6084 0159209  65.7270 296.0498 15.10114208445363
S-Net D
1 43186U 18014G   26035.72483052  .00007202  00000-0  38688-3 0  9990
2 43186  97.5470 301.4047 0010182 111.7426 248.4891 15.15169969438697
S-Net B
1 43187U 18014H   26035.73379572  .00007434  00000-0  39944-3 0  9996
2 43187  97.5475 301.3960 0010881 108.2190 252.0228 15.15142598438695
S-Net A
1 43188U 18014J   26035.72431659  .00007158  00000-0  38443-3 0  9997
2 43188  97.5486 301.5716 0010815 108.6288 251.6119 15.15175776438696
S-Net C
1 43189U 18014K   26035.73698123  .00007412  00000-0  39824-3 0  9997
2 43189  97.5501 301.6383 0012228 103.1779 257.0818 15.15134463437245
Ten-Koh
1 43677U 18084G   26035.47305204  .00004025  00000-0  31026-3 0  9995
2 43677  98.0716 222.2798 0009232 202.7979 157.2836 15.02203858396233
PO-101
1 43678U 18084H   26035.83249707  .00001822  00000-0  15246-3 0  9999
2 43678  98.1069 226.5190 0008231 229.7433 130.3070 14.99796602396377
QO-100
1 43700U 18090A   26035.77660602  .00000000  00000-0  00000+0 0  9991
2 43700   0.0152 117.5952 0002405 243.3311  79.3649  1.00269992 26343
MinXSS-2
1 43758U 18099A   26035.16963025  .00034762  00000-0  92673-3 0  9994
2 43758  97.4699 108.3626 0009017  31.0205 329.1570 15.38039394393622
AO-95
1 43770U 18099N   26035.68120903  .00013704  00000-0  57595-3 0  9992
2 43770  97.4576  96.5959 0010706  94.9434 265.3025 15.23489574393029
SNUSat 2
1 43782U 18099AA  26035.68145410  .00010462  00000-0  49492-3 0  9990
2 43782  97.4260  91.1830 0011732  46.1785 314.0418 15.19493398392895
SnugLite
1 43784U 18099AC  26035.12892865  .00014032  00000-0  58361-3 0  9996
2 43784  97.4073  90.8905 0004004  57.0484 303.1138 15.23880346393032
ITASat 1
1 43786U 18099AE  26035.60430610  .00008931  00000-0  45262-3 0  9994
2 43786  97.4235  89.8044 0014614  94.8112 265.4790 15.17102389392794
EAGLET 1
1 43790U 18099AJ  26035.66171389  .00005166  00000-0  30598-3 0  9993
2 43790  97.4434  88.8112 0013036  85.0092 275.2627 15.11763090392302
ESEO
1 43792U 18099AL  26035.65228273  .00002699  00000-0  20039-3 0  9996
2 43792  97.4173  78.6241 0013567  68.9771 291.2905 15.03772330391884
JO-97
1 43803U 18099AX  26035.71617775  .00019431  00000-0  69090-3 0  9997
2 43803  97.4324  98.4116 0006681  32.0253 328.1392 15.29012971393352
Suomi 100
1 43804U 18099AY  26035.68875593  .00015158  00000-0  60821-3 0  9993
2 43804  97.4391  96.7652 0011218  34.4405 325.7558 15.25023033393208
ISAT
1 43879U 18111D   26035.71373243  .00052791  00000-0  10354-2 0  9998
2 43879  97.5911 322.7771 0008984  73.1796 287.0438 15.47142892390575
UWE-4
1 43880U 18111E   26035.70628624  .00032450  00000-0  87303-3 0  9994
2 43880  97.5868 318.8580 0012017  82.2690 277.9919 15.37740689390364
Sparrow
1 43881U 18111F   26035.73679837  .00060755  00000-0  10718-2 0  9994
2 43881  97.6111 326.9169 0008171  96.1351 264.0831 15.50158923390712
Prox-1
1 44339U 19036A   26035.02477536  .00017672  00000-0  18964-2 0  9995
2 44339  23.9952 281.3985 0006964 296.7027  63.2759 14.86945051353601
Taurus 1
1 44530U 19059C   26035.82905417  .00012549  00000-0  20861-2 0  9992
2 44530  98.6259 192.7194 0008399   6.7511 353.3805 14.70237598339186
TO-108
1 44881U 19093C   26035.83229553  .00001926  00000-0  22473-3 0  9999
2 44881  97.7677 111.2383 0014044 156.8242 203.3610 14.86263133331751
FloripaSat 1
1 44885U 19093G   26035.81658465  .00009092  00000-0  69393-3 0  9993
2 44885  97.7900 129.2622 0011905 154.1589 206.0232 15.02167775332763
RS-44
1 44909U 19096E   26035.56837243  .00000010  00000-0 -11118-4 0  9993
2 44909  82.5174  67.8348 0218659  94.4576 268.1539 12.79746821285384
SALSAT
1 46495U 20068K   26035.53293740  .00011216  00000-0  41927-3 0  9990
2 46495  97.8827  30.7650 0011853  54.1114 306.1222 15.27468128295091
CSS (TIANHE-1)
1 48274U 21035A   26035.48786892  .00016594  00000-0  20945-3 0  9992
2 48274  41.4675  49.9559 0005892 357.7325   2.3485 15.59177353272426
CUTE
1 49263U 21088D   26035.49815183  .00036364  00000-0  38864-3 0  9992
2 49263  97.4273 125.9182 0004570  77.1540 283.0229 15.63813242241688
TeikyoSat 4
1 49396U 21102B   26035.65320144  .00002761  00000-0  17845-3 0  9992
2 49396  97.3834  70.2203 0013092  35.4107 324.7989 15.08948179232737
Z-Sat
1 49399U 21102E   26035.87505196  .00004139  00000-0  21166-3 0  9993
2 49399  97.3511  75.1915 0016845 355.2902   4.8171 15.17070616233373
KOSEN 1
1 49402U 21102H   26035.60462943  .00009855  00000-0  40024-3 0  9995
2 49402  97.3389  80.3899 0013162 321.3636  38.6659 15.24700119233807
HO-113
1 50466U 21131B   26035.87406870  .00000631  00000-0  20929-3 0  9990
2 50466  98.5000 129.0142 0005013 127.8277 232.3366 14.41204911216053
SNUGLITE 2
1 52899U 22065F   26035.66204274  .00001651  00000-0  32388-3 0  9995
2 52899  98.1974 180.9117 0008606  82.2382 277.9797 14.64032136191600
